Weather History for Wenatchee, WA

Change the Weather History Date:

Monday, October 6, 2014

  Actual Average Record
Temperature  
Mean Temperature 61 °F 50 °F  
Max Temperature 80 °F 63 °F 82 °F (1980)
Min Temperature 41 °F 36 °F 23 °F (2012)
Degree Days  
Heating Degree Days 4 15  
Month to date heating degree days 53 86  
Since 1 July heating degree days 237 442  
Cooling Degree Days 0 0  
Month to date cooling degree days 0 0  
Year to date cooling degree days 408 249  
Growing Degree Days 25 (Base 50)    
Moisture  
Dew Point 48 °F    
Average Humidity 0    
Maximum Humidity 0    
Minimum Humidity 0    
Precipitation  
Precipitation 0.00 in 0.02 in 0.65 in (1985)
Month to date precipitation 0.00 0.15  
Year to date precipitation 11.97 11.20  
Snow  
Snow 0.00 in 0.00 in - ()
Month to date snowfall 0.0 0.0  
Since 1 July snowfall 0.0 0.0  
Since 1 September snowfall 0.0 0.0  
Snow Depth 0.00 in    
Sea Level Pressure  
Sea Level Pressure 29.91 in    
Wind  
Wind Speed 10 mph (WNW)    
Max Wind Speed 23 mph    
Max Gust Speed 0 mph    
Visibility 10 miles    
Events      
T = Trace of Precipitation, MM = Missing Value Source: NWS Daily Summary

Daily Weather History Graph

Daily Weather History Graph

Search for Another Location

Airport:

Trip Planner

Search our weather history database for the weather conditions in past years. The results will help you decide how hot, cold, wet, or windy it might be!

Date:

Astronomy

Oct. 06, 2014 Rise Set
Actual Time 7:06 AM PDT 6:30 PM PDT
Civil Twilight 6:36 AM PDT 7:00 PM PDT
Nautical Twilight 6:00 AM PDT 7:36 PM PDT
Astronomical Twilight 5:24 AM PDT 8:11 PM PDT
Moon 5:35 PM PDT (10/6) 4:51 AM PDT (10/6)
Length of Visible Light 12h 24m
Length of Day
11h 23m
Waxing Gibbous, 96% of the Moon is Illuminated
Oct 6
Waxing Gibbous
Oct 8
Full
Oct 15
Last Quarter
Oct 23
New
Oct 30
First Quarter

Hourly Weather History & Observations

Time (PDT) Temp. Dew Point Humidity Pressure Visibility Wind Dir Wind Speed Gust Speed Precip Events Conditions
12:55 AM 70.0 °F 46.0 °F 42% 29.97 in 10.0 mi NNW 11.5 mph - N/A   Clear
1:55 AM 66.9 °F 46.0 °F 47% 29.97 in 10.0 mi West 8.1 mph - N/A   Clear
2:55 AM 68.0 °F 45.0 °F 43% 29.95 in 10.0 mi NW 13.8 mph - N/A   Clear
3:55 AM 66.9 °F 44.1 °F 44% 29.95 in 10.0 mi WSW 4.6 mph - N/A   Clear
4:55 AM 63.0 °F 45.0 °F 52% 29.96 in 10.0 mi NNW 4.6 mph - N/A   Clear
5:55 AM 64.9 °F 44.1 °F 47% 29.97 in 10.0 mi NNW 4.6 mph - N/A   Clear
6:55 AM 61.0 °F 44.1 °F 54% 29.98 in 10.0 mi NW 4.6 mph - N/A   Clear
7:55 AM 64.9 °F 44.1 °F 47% 29.98 in 10.0 mi NNW 6.9 mph - N/A   Clear
8:55 AM 69.1 °F 44.1 °F 40% 29.98 in 10.0 mi NW 8.1 mph - N/A   Clear
9:55 AM 72.0 °F 45.0 °F 38% 29.97 in 10.0 mi NW 6.9 mph - N/A   Clear
10:55 AM 77.0 °F 48.9 °F 37% 29.95 in 10.0 mi West 10.4 mph - N/A   Clear
11:55 AM 81.0 °F 50.0 °F 34% 29.93 in 10.0 mi Variable 5.8 mph - N/A   Clear
12:55 PM 86.0 °F 50.0 °F 29% 29.90 in 10.0 mi WSW 10.4 mph 17.3 mph N/A   Clear
1:33 PM 88.0 °F 48.0 °F 25% 29.90 in 10.0 mi WNW 17.3 mph 23.0 mph N/A   Clear
1:55 PM 88.0 °F 48.0 °F 25% 29.86 in 10.0 mi NW 18.4 mph - N/A   Clear
2:55 PM 89.1 °F 48.9 °F 25% 29.83 in 10.0 mi WNW 23.0 mph - N/A   Clear
3:55 PM 89.1 °F 46.9 °F 23% 29.83 in 10.0 mi WNW 18.4 mph 28.8 mph N/A   Clear
4:55 PM 88.0 °F 46.0 °F 23% 29.83 in 10.0 mi WNW 17.3 mph - N/A   Clear
5:55 PM 84.9 °F 48.0 °F 28% 29.83 in 10.0 mi WNW 16.1 mph - N/A   Clear
6:55 PM 79.0 °F 50.0 °F 36% 29.86 in 10.0 mi NW 12.7 mph - N/A   Clear
7:55 PM 77.0 °F 51.1 °F 40% 29.87 in 10.0 mi NW 10.4 mph - N/A   Clear
8:55 PM 75.0 °F 51.1 °F 43% 29.88 in 10.0 mi WNW 8.1 mph - N/A   Clear
9:55 PM 73.9 °F 51.1 °F 45% 29.88 in 10.0 mi WNW 15.0 mph - N/A   Clear
10:55 PM 73.0 °F 51.1 °F 46% 29.88 in 10.0 mi WNW 13.8 mph - N/A   Clear
11:55 PM 71.1 °F 51.1 °F 49% 29.88 in 10.0 mi NW 8.1 mph - N/A   Clear